Regional Weather Roundup
Issued by NWS Wilmington, NC

Home | Current Version | Previous Version | Text Only | Print | Product List | Glossary On
Versions: 1 2 3 4 5 6 7 8 9 10 11 12 13 14 15 16 17 18 19 20 21 22 23 24 25 26 27 28 29 30 31 32 33 34 35 36 37 38 39 40 41 42 43 44 45 46 47 48 49 50
000
ASUS42 KILM 161712
RWRILM
RWRILM
REGIONAL HOURLY WEATHER ROUNDUP
NATIONAL WEATHER SERVICE WILMINGTON NC
1200 PM EST MON JAN 16 2017

NOTE: "FAIR" INDICATES FEW OR NO CLOUDS BELOW 12,000 FEET WITH NO
SIGNIFICANT WEATHER AND/OR OBSTRUCTIONS TO VISIBILITY.

...............WFO WILMINGTON COUNTY WARNING AREA...............

......COASTAL NC AND SC COUNTIES......

CITY           SKY/WX    TMP DP  RH WIND       PRES   REMARKS
WILMINGTON     CLOUDY    53  42  66 NE6       30.40F
N MYRTLE BEACH CLOUDY    58  50  75 VRB6      30.38F
MYRTLE BEACH   CLOUDY    57  48  72 NE6       30.41F

......INLAND NC AND SC COUNTIES.......

CITY           SKY/WX    TMP DP  RH WIND       PRES   REMARKS
LUMBERTON      CLOUDY    50  43  77 NE3       30.42F
ELIZABETHTOWN  CLOUDY    50  42  73 CALM      30.40F
WHITEVILLE     CLOUDY    51  45  79 NE6       30.39F
FLORENCE       CLOUDY    51  50  96 NE7       30.41F FOG
DARLINGTON     FOG       49  49 100 NE9       30.41F VSB 1/2
KINGSTREE      CLOUDY    54  52  94 CALM      30.39F FOG
HARTSVILLE     CLOUDY    50  50 100 NE7       30.40F VSB 1
BENNETTSVILLE  CLOUDY    50  48  93 N8        30.42F
CONWAY         CLOUDY    54  50  87 N3        30.40F FOG
GEORGETOWN     FOG       54  52  94 NE5       30.39F VSB 1/2
MARION         CLOUDY    48  46  93 NE6       30.40F FOG

....................REST OF NORTH CAROLINA......................

.........EASTERN NC.........

CITY           SKY/WX    TMP DP  RH WIND       PRES   REMARKS
CAPE HATTERAS  CLOUDY    50  44  80 N9        30.41F
JACKSONVILLE   CLOUDY    50  40  68 NE6       30.43F
MOREHEAD CITY  CLOUDY    54  43  66 NE8       30.41F
KENANSVILLE    CLOUDY    50  37  62 NE3       30.42F
NEW BERN       CLOUDY    49  39  68 NE3       30.43F
ELIZABETH CITY CLOUDY    44  40  85 N7        30.46F

.........CENTRAL NC.........

CITY           SKY/WX    TMP DP  RH WIND       PRES   REMARKS
RALEIGH DURHAM CLOUDY    48  23  37 CALM      30.43F
ROCKY MOUNT    CLOUDY    46  34  62 E3        30.44F
ROANOKE RAPIDS NOT AVBL
FAYETTEVILLE   CLOUDY    50  39  66 NE5       30.42F
HOFFMAN        CLOUDY    46  43  87 E3        30.42F

.........WESTERN NC.........

CITY           SKY/WX    TMP DP  RH WIND       PRES   REMARKS
CHARLOTTE      CLOUDY    52  46  80 CALM      30.40F
GREENSBORO     CLOUDY    48  38  68 CALM      30.40F
HICKORY        NOT AVBL
BOONE          NOT AVBL
ASHEVILLE      NOT AVBL

.....................REST OF SOUTH CAROLINA.....................

.........EASTERN SC.........

CITY           SKY/WX    TMP DP  RH WIND       PRES   REMARKS
CHARLESTON     CLOUDY    62  57  83 NE6       30.35F HAZE
BEAUFORT MCAS  LGT RAIN  63  59  87 N3        30.36F
HILTON HEAD    PTSUNNY   61  59  94 NE7       30.37F

.........CENTRAL SC.........

CITY           SKY/WX    TMP DP  RH WIND       PRES   REMARKS
COLUMBIA       CLOUDY    58  54  86 NE6       30.36F
ORANGEBURG     CLOUDY    56  55  97 E6        30.37F FOG
SUMTER SHAW    CLOUDY    53  52  97 E6        30.36F

.........WESTERN SC.........

CITY           SKY/WX    TMP DP  RH WIND       PRES   REMARKS
GREENVILLE     NOT AVBL
ROCK HILL      CLOUDY    53  47  79 NE3       30.40F
ANDERSON       CLOUDY    57  52  83 NE9       30.36F
CLEMSON        NOT AVBL
GREENWOOD      CLOUDY    54  52  93 NE6       30.38F FOG


...................COASTAL AND OFFSHORE REPORTS..................

................LOCAL PIERS AND NC RESERVE................


STATION/POSITION TIME  SKY/WX   TEMP    WIND        PRES    VSBY
                                AIR SEA DIR/SP/G
                 (UTC)          (F)     (DEG/KT/KT) (MB)    (MI)
JOHNY MRCER PIER 1648                    40/ 10/ 12 1028.3F
NC RESRV MASNBRO 1545            50      70/  7     1029.0
OCEAN CREST PIER NOT AVBL
SPRINGMAID  PIER NOT AVBL


................COASTAL AND OFFSHORE BUOYS................


STATION/POSITION TIME  SKY/WX   TEMP    WIND        PRES    VSBY
                                AIR SEA DIR/SP/G
                 (UTC)          (F)     (DEG/KT/KT) (MB)    (MI)
DIMNDSHOAL 41025 1650            57 74   10/ 17/ 21 1028.8F
WVE H/P(F/S)=  4/ 8 SWL H/P/D(F/S/D)=  2/ 80/ 8

CAPE LOOKOUT     1600            50      20/ 11/ 14 1029.9R
ONSLOW BAY 41036 NOT AVBL
ONSLOW BAY 41064 1608            55 64   50/ 14/ 19 1029.6S
ONSLOW BAY 41159 1643               64                N/A
WVE H/P(F/S)=  4/ 5 SWL H/P/D(F/S/D)=  2/110/11

MASNBO INL 41110 1659               53                N/A
WVE H/P(F/S)=  4/ 6

WILM HARBR 41108 1656               56                N/A
WVE H/P(F/S)=  3/ 4

27SE WRITB 41037 1608            58 70   60/ 16/ 21 1028.7F
FRYING PAN 41013 1650            65 71   30/ 17/ 21 1027.7F
WVE H/P(F/S)=  5/ 6 SWL H/P/D(F/S/D)=  2/120/11

SUNST NRSH 41024 1608            53 53   50/  8/ 10 1029.1F
CAPRS NRSH 41029 1608            53 54   40/ 12/ 16 1028.3S
EDISTO     41004 1650            68 71   70/  6/  6 1026.7F
WVE H/P(F/S)=  4/11 SWL H/P/D(F/S/D)=  3/140/11



..........OFFSHORE BUOYS BEYOND 100 NM OFFSHORE...........
.....IN A TRIANGLE---HAT TO BERMUDA TO BAHAMAS TO HAT.....


STATION/POSITION TIME  SKY/WX   TEMP    WIND        PRES    VSBY
                                AIR SEA DIR/SP/G
                 (UTC)          (F)     (DEG/KT/KT) (MB)    (MI)
150E HAT   41001 NOT AVBL
W BERMUDA  41048 1650            67 70   30/ 10/ 12 1026.3F
WVE H/P(F/S)=  5/ 8 SWL H/P/D(F/S/D)=  5/350/ 8

ATLANTIC S 41049 1650            70 74  280/  6/  8 1023.0F
WVE H/P(F/S)=  6/ 9 SWL H/P/D(F/S/D)=  5/ 10/ 9

E BAHAMAS  41046 1700            76 78   60/ 17/ 21 1022.0
NE BAHAMAS 41047 1700            72 74   40/  6/  8 1024.7
120E CANVRL41010 NOT AVBL

END



USA.gov is the U.S. government's official web portal to all federal, state and local government web resources and services.